Track CELESTIS 16 (OTB) now! 10-day predictions CELESTIS 16 (OTB) is classified as:
1 44341U 19036C 24285.12538775 .00015376 00000-0 34480-2 0 9997 2 44341 23.9971 264.4428 0011762 102.1233 258.0577 14.54997365281769